Time,TemperatureF,DewpointF,PressureIn,WindDirection,WindDirectionDegrees,WindSpeedMPH,WindSpeedGustMPH,Humidity,HourlyPrecipIn,Conditions,Clouds,dailyrainin,SolarRadiationWatts/m^2,SoftwareType,DateUTC
2013-05-08 00:21:00,49.0,46.0,-100.00,NNE,31,2.0,4.0,89,0.00,,,0.20,1.000000,,2013-05-08 07:21:00,
2013-05-08 00:31:00,49.0,46.0,-100.00,NNE,31,2.0,4.0,89,0.00,,,0.20,1.000000,,2013-05-08 07:31:00,
2013-05-08 00:42:00,49.0,46.0,-100.00,NNE,31,2.0,4.0,89,0.00,,,0.20,1.000000,,2013-05-08 07:42:00,
2013-05-08 00:52:00,49.0,46.0,-100.00,NNE,31,2.0,4.0,89,0.00,,,0.20,1.000000,,2013-05-08 07:52:00,
2013-05-08 01:21:00,46.0,45.0,-100.00,SE,127,2.0,4.0,98,0.01,,,0.21,1.000000,,2013-05-08 08:21:00,
2013-05-08 01:31:00,46.0,45.0,-100.00,SE,127,2.0,4.0,98,0.01,,,0.21,1.000000,,2013-05-08 08:31:00,
2013-05-08 01:42:00,46.0,45.0,-100.00,SE,127,2.0,4.0,98,0.01,,,0.21,1.000000,,2013-05-08 08:42:00,
2013-05-08 01:51:00,46.0,45.0,-100.00,SE,127,2.0,4.0,98,0.01,,,0.21,1.000000,,2013-05-08 08:51:00,
2013-05-08 02:21:00,44.0,44.0,-100.00,East,101,5.0,8.0,99,0.00,,,0.21,1.000000,,2013-05-08 09:21:00,
2013-05-08 02:32:00,44.0,44.0,-100.00,East,101,5.0,8.0,99,0.00,,,0.21,1.000000,,2013-05-08 09:32:00,
2013-05-08 02:42:00,44.0,44.0,-100.00,East,101,5.0,8.0,99,0.00,,,0.21,1.000000,,2013-05-08 09:42:00,
2013-05-08 02:52:00,44.0,44.0,-100.00,East,101,5.0,8.0,99,0.00,,,0.21,1.000000,,2013-05-08 09:52:00,
2013-05-08 03:22:00,44.0,43.0,-100.00,ENE,61,7.0,9.0,98,0.00,,,0.21,1.000000,,2013-05-08 10:22:00,
2013-05-08 03:33:00,44.0,43.0,-100.00,ENE,61,7.0,9.0,98,0.00,,,0.21,1.000000,,2013-05-08 10:33:00,
2013-05-08 03:42:00,44.0,43.0,-100.00,ENE,61,7.0,9.0,98,0.00,,,0.21,1.000000,,2013-05-08 10:42:00,
2013-05-08 03:52:00,44.0,43.0,-100.00,ENE,61,7.0,9.0,98,0.00,,,0.21,1.000000,,2013-05-08 10:52:00,
2013-05-08 04:22:00,42.0,42.0,-100.00,East,79,4.0,7.0,99,0.00,,,0.21,1.000000,,2013-05-08 11:22:00,
2013-05-08 04:32:00,42.0,42.0,-100.00,East,79,4.0,7.0,99,0.00,,,0.21,1.000000,,2013-05-08 11:32:00,
2013-05-08 04:42:00,42.0,42.0,-100.00,East,79,4.0,7.0,99,0.00,,,0.21,1.000000,,2013-05-08 11:42:00,
2013-05-08 04:52:00,42.0,42.0,-100.00,East,79,4.0,7.0,99,0.00,,,0.21,1.000000,,2013-05-08 11:52:00,
2013-05-08 05:21:00,42.0,42.0,-100.00,ENE,76,2.0,6.0,100,0.00,,,0.21,1.000000,,2013-05-08 12:21:00,
2013-05-08 05:31:00,42.0,42.0,-100.00,ENE,76,2.0,6.0,100,0.00,,,0.21,1.000000,,2013-05-08 12:31:00,
2013-05-08 05:41:00,42.0,42.0,-100.00,ENE,76,2.0,6.0,100,0.00,,,0.21,1.000000,,2013-05-08 12:41:00,
2013-05-08 05:51:00,42.0,42.0,-100.00,ENE,76,2.0,6.0,100,0.00,,,0.21,1.000000,,2013-05-08 12:51:00,
2013-05-08 06:21:00,41.0,41.0,-100.00,ENE,73,3.0,6.0,100,0.00,,,0.21,1.000000,,2013-05-08 13:21:00,
2013-05-08 06:32:00,41.0,41.0,-100.00,ENE,73,3.0,6.0,100,0.00,,,0.21,1.000000,,2013-05-08 13:32:00,
2013-05-08 06:42:00,41.0,41.0,-100.00,ENE,73,3.0,6.0,100,0.00,,,0.21,1.000000,,2013-05-08 13:42:00,
2013-05-08 06:52:00,41.0,41.0,-100.00,ENE,73,3.0,6.0,100,0.00,,,0.21,1.000000,,2013-05-08 13:52:00,
2013-05-08 08:21:00,49.0,46.0,-100.00,ENE,71,4.0,5.0,91,-99.99,,,0.21,221.000000,,2013-05-08 15:21:00,
2013-05-08 08:33:00,49.0,46.0,-100.00,ENE,71,4.0,5.0,91,-99.99,,,0.21,221.000000,,2013-05-08 15:33:00,
2013-05-08 08:42:00,49.0,46.0,-100.00,ENE,71,4.0,5.0,91,-99.99,,,0.21,221.000000,,2013-05-08 15:42:00,
2013-05-08 08:52:00,49.0,46.0,-100.00,ENE,71,4.0,5.0,91,-99.99,,,0.21,221.000000,,2013-05-08 15:52:00,
2013-05-08 09:23:00,53.0,47.0,-100.00,NE,37,5.0,7.0,81,0.00,,,-99.99,408.000000,,2013-05-08 16:23:00,
2013-05-08 09:33:00,53.0,47.0,-100.00,NE,37,5.0,7.0,81,0.00,,,-99.99,408.000000,,2013-05-08 16:33:00,
2013-05-08 09:42:00,53.0,47.0,-100.00,NE,37,5.0,7.0,81,0.00,,,-99.99,408.000000,,2013-05-08 16:42:00,
2013-05-08 09:52:00,53.0,47.0,-100.00,NE,37,5.0,7.0,81,0.00,,,-99.99,408.000000,,2013-05-08 16:52:00,
2013-05-08 10:22:00,59.0,49.0,-100.00,North,11,4.0,7.0,69,0.00,,,-99.99,609.000000,,2013-05-08 17:22:00,
2013-05-08 10:31:00,59.0,49.0,-100.00,North,11,4.0,7.0,69,0.00,,,-99.99,609.000000,,2013-05-08 17:31:00,
2013-05-08 10:41:00,59.0,49.0,-100.00,North,11,4.0,7.0,69,0.00,,,-99.99,609.000000,,2013-05-08 17:41:00,
2013-05-08 10:52:00,59.0,49.0,-100.00,North,11,4.0,7.0,69,0.00,,,-99.99,609.000000,,2013-05-08 17:52:00,
2013-05-08 11:21:00,64.0,47.0,-100.00,NNE,27,5.0,9.0,53,0.00,,,0.21,777.000000,,2013-05-08 18:21:00,
2013-05-08 11:31:00,64.0,47.0,-100.00,NNE,27,5.0,9.0,53,0.00,,,0.21,777.000000,,2013-05-08 18:31:00,
2013-05-08 11:42:00,64.0,47.0,-100.00,NNE,27,5.0,9.0,53,0.00,,,0.21,777.000000,,2013-05-08 18:42:00,
2013-05-08 11:51:00,64.0,47.0,-100.00,NNE,27,5.0,9.0,53,0.00,,,0.21,777.000000,,2013-05-08 18:51:00,
2013-05-08 12:21:00,66.0,50.0,-100.00,WSW,253,6.0,8.0,56,0.00,,,0.21,911.000000,,2013-05-08 19:21:00,
2013-05-08 12:32:00,66.0,50.0,-100.00,WSW,253,6.0,8.0,56,0.00,,,0.21,911.000000,,2013-05-08 19:32:00,
2013-05-08 12:41:00,66.0,50.0,-100.00,WSW,253,6.0,8.0,56,0.00,,,0.21,911.000000,,2013-05-08 19:41:00,
2013-05-08 12:52:00,66.0,50.0,-100.00,WSW,253,6.0,8.0,56,0.00,,,0.21,911.000000,,2013-05-08 19:52:00,
2013-05-08 13:22:00,65.0,49.0,-100.00,SW,222,4.0,11.0,56,0.00,,,0.21,607.000000,,2013-05-08 20:22:00,
2013-05-08 13:32:00,65.0,49.0,-100.00,SW,222,4.0,11.0,56,0.00,,,0.21,607.000000,,2013-05-08 20:32:00,
2013-05-08 13:41:00,65.0,49.0,-100.00,SW,222,4.0,11.0,56,0.00,,,0.21,607.000000,,2013-05-08 20:41:00,
2013-05-08 13:51:00,65.0,49.0,-100.00,SW,222,4.0,11.0,56,0.00,,,0.21,607.000000,,2013-05-08 20:51:00,
2013-05-08 14:21:00,60.0,50.0,-100.00,South,184,3.0,8.0,69,0.00,,,0.20,114.000000,,2013-05-08 21:21:00,
2013-05-08 14:32:00,60.0,50.0,-100.00,South,184,3.0,8.0,69,0.00,,,0.20,114.000000,,2013-05-08 21:32:00,
2013-05-08 14:43:00,60.0,50.0,-100.00,South,184,3.0,8.0,69,0.00,,,0.20,114.000000,,2013-05-08 21:43:00,
2013-05-08 14:52:00,60.0,50.0,-100.00,South,184,3.0,8.0,69,0.00,,,0.20,114.000000,,2013-05-08 21:52:00,
2013-05-08 15:22:00,67.0,46.0,-100.00,SW,223,6.0,10.0,47,0.00,,,0.20,418.000000,,2013-05-08 22:22:00,
2013-05-08 15:33:00,67.0,46.0,-100.00,SW,223,6.0,10.0,47,0.00,,,0.20,418.000000,,2013-05-08 22:33:00,
2013-05-08 15:42:00,67.0,46.0,-100.00,SW,223,6.0,10.0,47,0.00,,,0.20,418.000000,,2013-05-08 22:42:00,
2013-05-08 15:52:00,67.0,46.0,-100.00,SW,223,6.0,10.0,47,0.00,,,0.20,418.000000,,2013-05-08 22:52:00,
2013-05-08 16:22:00,63.0,47.0,-100.00,NW,322,13.0,20.0,55,0.00,,,0.12,498.000000,,2013-05-08 23:22:00,
2013-05-08 16:32:00,63.0,47.0,-100.00,NW,322,13.0,20.0,55,0.00,,,0.12,498.000000,,2013-05-08 23:32:00,
2013-05-08 16:42:00,63.0,47.0,-100.00,NW,322,13.0,20.0,55,0.00,,,0.12,498.000000,,2013-05-08 23:42:00,
2013-05-08 16:52:00,63.0,47.0,-100.00,NW,322,13.0,20.0,55,0.00,,,0.12,498.000000,,2013-05-08 23:52:00,
2013-05-08 17:42:00,50.0,47.0,-100.00,NNE,27,7.0,22.0,90,0.24,,,-99.99,35.000000,,2013-05-09 00:42:00,
2013-05-08 17:51:00,50.0,47.0,-100.00,NNE,27,7.0,22.0,90,0.24,,,-99.99,35.000000,,2013-05-09 00:51:00,
2013-05-08 18:22:00,51.0,50.0,-100.00,West,279,7.0,12.0,95,0.04,,,0.39,16.000000,,2013-05-09 01:22:00,
2013-05-08 18:32:00,51.0,50.0,-100.00,West,279,7.0,12.0,95,0.04,,,0.39,16.000000,,2013-05-09 01:32:00,
2013-05-08 18:42:00,51.0,50.0,-100.00,West,279,7.0,12.0,95,0.04,,,0.39,16.000000,,2013-05-09 01:42:00,
2013-05-08 18:52:00,51.0,50.0,-100.00,West,279,7.0,12.0,95,0.04,,,0.39,16.000000,,2013-05-09 01:52:00,
2013-05-08 19:21:00,51.0,50.0,-100.00,East,83,3.0,9.0,96,0.00,,,0.34,81.000000,,2013-05-09 02:21:00,
2013-05-08 19:32:00,51.0,50.0,-100.00,East,83,3.0,9.0,96,0.00,,,0.34,81.000000,,2013-05-09 02:32:00,
2013-05-08 19:41:00,51.0,50.0,-100.00,East,83,3.0,9.0,96,0.00,,,0.34,81.000000,,2013-05-09 02:41:00,
2013-05-08 19:52:00,51.0,50.0,-100.00,East,83,3.0,9.0,96,0.00,,,0.34,81.000000,,2013-05-09 02:52:00,
2013-05-08 20:21:00,50.0,50.0,-100.00,ESE,116,2.0,6.0,99,0.00,,,0.29,59.000000,,2013-05-09 03:21:00,
2013-05-08 20:33:00,50.0,50.0,-100.00,ESE,116,2.0,6.0,99,0.00,,,0.29,59.000000,,2013-05-09 03:33:00,
2013-05-08 20:43:00,50.0,50.0,-100.00,ESE,116,2.0,6.0,99,0.00,,,0.29,59.000000,,2013-05-09 03:43:00,
2013-05-08 20:52:00,50.0,50.0,-100.00,ESE,116,2.0,6.0,99,0.00,,,0.29,59.000000,,2013-05-09 03:52:00,
2013-05-08 21:23:00,49.0,49.0,-100.00,East,79,4.0,6.0,99,0.00,,,0.29,4.000000,,2013-05-09 04:23:00,
2013-05-08 21:33:00,49.0,49.0,-100.00,East,79,4.0,6.0,99,0.00,,,0.29,4.000000,,2013-05-09 04:33:00,
2013-05-08 21:43:00,49.0,49.0,-100.00,East,79,4.0,6.0,99,0.00,,,0.29,4.000000,,2013-05-09 04:43:00,
2013-05-08 21:52:00,49.0,49.0,-100.00,East,79,4.0,6.0,99,0.00,,,0.29,4.000000,,2013-05-09 04:52:00,
2013-05-08 22:22:00,49.0,47.0,-100.00,ENE,78,2.0,7.0,94,0.00,,,0.29,1.000000,,2013-05-09 05:22:00,
2013-05-08 22:32:00,49.0,47.0,-100.00,ENE,78,2.0,7.0,94,0.00,,,0.29,1.000000,,2013-05-09 05:32:00,
2013-05-08 22:42:00,49.0,47.0,-100.00,ENE,78,2.0,7.0,94,0.00,,,0.29,1.000000,,2013-05-09 05:42:00,
2013-05-08 22:51:00,49.0,47.0,-100.00,ENE,78,2.0,7.0,94,0.00,,,0.29,1.000000,,2013-05-09 05:51:00,
2013-05-08 23:21:00,48.0,48.0,-100.00,North,357,5.0,8.0,99,0.00,,,0.29,1.000000,,2013-05-09 06:21:00,
2013-05-08 23:32:00,48.0,48.0,-100.00,North,357,5.0,8.0,99,0.00,,,0.29,1.000000,,2013-05-09 06:32:00,
2013-05-08 23:42:00,48.0,48.0,-100.00,North,357,5.0,8.0,99,0.00,,,0.29,1.000000,,2013-05-09 06:42:00,
2013-05-08 23:52:00,48.0,48.0,-100.00,North,357,5.0,8.0,99,0.00,,,0.29,1.000000,,2013-05-09 06:52:00,